CW5084 Weather Reports


time (UTC)temp
C
wind
direction
speed
KPH
gust
KPH
rain 1hr
cm
rain 24hr
cm
rain mn
cm
humidity
%
barometer
mb
20260504081026 7 200 9.7 9.7 0.00 0.00 0.00 62 1008.0
20260504045055 9 206 8.0 11.3 0.00 0.00 0.00 57 1008.6
20260504044055 9 207 11.3 14.5 0.00 0.00 0.00 55 1008.6
20260504043025 10 208 9.7 16.1 0.00 0.00 0.00 53 1008.6
20260504042055 10 211 9.7 16.1 0.00 0.00 0.00 52 1008.7
20260504041025 10 212 6.4 20.9 0.00 0.00 0.00 53 1008.7
20260504040055 10 219 11.3 17.7 0.00 0.00 0.00 52 1008.8
20260504035055 10 214 8.0 17.7 0.00 0.00 0.00 54 1008.6
20260504034055 10 214 6.4 19.3 0.00 0.00 0.00 53 1008.7
20260504033055 10 213 9.7 20.9 0.00 0.00 0.00 53 1008.8
20260504031055 10 234 6.4 14.5 0.00 0.00 0.00 55 1008.8
20260504030054 10 220 6.4 11.3 0.00 0.00 0.00 55 1008.9
20260504025055 10 221 8.0 14.5 0.00 0.00 0.00 56 1009.0
20260504024054 10 224 9.7 12.9 0.00 0.00 0.00 58 1009.1
20260504023055 10 241 4.8 29.0 0.00 0.00 0.00 58 1009.3
20260504022054 9 242 29.0 29.0 0.00 0.00 0.00 58 1009.6
20260504021054 10 306 11.3 35.4 0.00 0.00 0.00 59 1009.7
20260504015054 10 269 14.5 25.7 0.00 0.00 0.00 51 1009.4
20260504014054 10 254 8.0 20.9 0.00 0.00 0.00 52 1009.3
20260504013055 10 271 14.5 22.5 0.00 0.00 0.00 52 1009.2
20260504012054 10 265 9.7 14.5 0.00 0.00 0.00 53 1009.2
20260504011054 10 247 11.3 12.9 0.00 0.00 0.00 54 1009.1
20260504010054 9 211 3.2 17.7 0.00 0.00 0.00 57 1009.0
20260504005054 9 211 4.8 14.5 0.00 0.00 0.00 59 1008.8
20260504004054 9 211 9.7 14.5 0.00 0.00 0.00 59 1008.6
20260504003054 8 199 4.8 9.7 0.00 0.00 0.00 61 1008.4
20260504001054 9 215 3.2 19.3 0.00 0.00 0.00 60 1008.5
20260504000054 9 225 6.4 12.9 0.00 0.00 0.00 61 1009.0
20260503235054 9 272 6.4 17.7 0.00 0.00 0.00 58 1009.1
20260503234054 9 262 9.7 29.0 0.00 0.00 0.00 57 1009.1
20260503233054 10 263 12.9 30.6 0.00 0.00 0.00 53 1009.1
20260503232054 10 262 6.4 17.7 0.00 0.00 0.00 48 1008.7
20260503230053 10 244 3.2 12.9 0.00 0.00 0.00 51 1008.4
20260503225054 10 252 1.6 16.1 0.00 0.00 0.00 48 1008.3
20260503224053 10 240 3.2 16.1 0.00 0.00 0.00 48 1008.3
20260503223053 10 246 8.0 16.1 0.00 0.00 0.00 47 1008.2
20260503222053 11 256 12.9 20.9 0.00 0.00 0.00 47 1008.3
20260503221054 11 277 9.7 24.1 0.00 0.00 0.00 45 1008.2
20260503220054 11 243 14.5 25.7 0.00 0.00 0.00 47 1008.4
20260503215053 10 247 16.1 25.7 0.00 0.00 0.00 48 1008.5
20260503214053 10 257 14.5 24.1 0.00 0.00 0.00 48 1008.5
20260503213053 11 259 9.7 24.1 0.00 0.00 0.00 48 1008.5
20260503210053 10 228 14.5 22.5 0.00 0.00 0.00 48 1008.6
20260503205053 10 288 17.7 33.8 0.00 0.00 0.00 50 1008.5
20260503204053 10 274 19.3 25.7 0.00 0.00 0.00 49 1008.6
20260503203053 10 262 19.3 25.7 0.00 0.00 0.00 50 1008.6
20260503202053 10 244 14.5 24.1 0.00 0.00 0.00 50 1008.8
20260503200053 10 281 14.5 27.4 0.00 0.00 0.00 51 1008.8
20260503195053 10 267 19.3 27.4 0.00 0.00 0.00 51 1009.0
20260503194053 9 248 12.9 27.4 0.00 0.00 0.00 52 1009.0
20260503193053 9 253 11.3 27.4 0.00 0.00 0.00 51 1009.1
20260503191053 10 248 6.4 27.4 0.00 0.00 0.00 46 1009.3
20260503190053 10 266 17.7 27.4 0.00 0.00 0.00 50 1009.5
20260503185053 9 240 16.1 30.6 0.00 0.00 0.00 49 1009.5
20260503184053 9 243 4.8 25.7 0.00 0.00 0.00 49 1009.6
20260503182053 9 252 17.7 25.7 0.00 0.00 0.00 44 1009.8
20260503181052 8 306 11.3 24.1 0.00 0.00 0.00 46 1009.9
20260503180053 8 273 16.1 40.2 0.00 0.00 0.00 49 1010.1
20260503174023 8 272 12.9 27.4 0.00 0.00 0.00 47 1010.3
20260503173053 8 306 25.7 25.7 0.00 0.00 0.00 47 1010.3
20260503172053 8 256 20.9 22.5 0.00 0.00 0.00 47 1010.4
20260503171053 7 277 4.8 22.5 0.00 0.00 0.00 48 1010.4